Lacey, Washington, United States (98503)
Lat: 47.03N, Lon: 122.82W
Wx Zone: WAZ504
Local Info
Past Weather Observations for Today

NOTE: This archive is for the closest National Weather Service station to Lacey. Information may differ from the station used for current weather conditions.

Click here for Long-term Archive

Time Weather Temperature Dewpoint Humidity Pressure Winds Precip Visibility
06:54
Overcast
52°F / 11°C 50°F / 10°C 94% 30.18 in
(1022 mb)
Calm - 8SM
06:47
Overcast
50°F / 10°C 48°F / 9°C 94% 30.18 in
(1022 mb)
S 3.5 mph
(S 6 kph)
- 8SM
05:54
Overcast
48°F / 9°C 46°F / 8°C 94% 30.18 in
(1022 mb)
Calm - 8SM
05:43
Overcast
Fog And Mist
48°F / 9°C 46°F / 8°C 94% 30.18 in
(1022 mb)
Calm - 5SM
05:35
Overcast
Fog And Mist
46°F / 8°C 46°F / 8°C 100% 30.18 in
(1022 mb)
Calm - 2SM
05:32
Overcast
Fog And Mist
46°F / 8°C 46°F / 8°C 100% 30.18 in
(1022 mb)
Calm - 1SM
05:25
Overcast
Fog
46°F / 8°C 46°F / 8°C 100% 30.18 in
(1022 mb)
Calm - 1/4SM
05:18
Overcast
Fog
46°F / 8°C 46°F / 8°C 100% 30.18 in
(1022 mb)
Calm - 1/4SM
05:08
Overcast
Fog
46°F / 8°C 45°F / 7°C 93% 30.18 in
(1022 mb)
Calm - 1/4SM
04:59
Overcast
Fog And Mist
46°F / 8°C 45°F / 7°C 93% 30.18 in
(1022 mb)
Calm - 3/4SM
04:57
Overcast
Fog And Mist
46°F / 8°C 45°F / 7°C 93% 30.18 in
(1022 mb)
Calm - 1 1/2SM
04:54
Overcast
46°F / 8°C 45°F / 7°C 93% 30.18 in
(1022 mb)
Calm - 7SM
04:51
Overcast
45°F / 7°C 45°F / 7°C 100% 30.18 in
(1022 mb)
Calm - 7SM
04:44
Overcast
Fog And Mist
45°F / 7°C 45°F / 7°C 100% 30.18 in
(1022 mb)
Calm - 2 1/2SM
04:36
Mostly Cloudy
Fog And Mist
45°F / 7°C 45°F / 7°C 100% 30.18 in
(1022 mb)
Calm - 1 1/4SM
04:33
Mostly Cloudy
Fog And Mist
45°F / 7°C 45°F / 7°C 100% 30.18 in
(1022 mb)
Calm - 2 1/2SM
04:25
Mostly Cloudy
46°F / 8°C 45°F / 7°C 93% 30.18 in
(1022 mb)
Calm - 8SM
04:18
Partly Cloudy
46°F / 8°C 45°F / 7°C 93% 30.18 in
(1022 mb)
Calm - 8SM
04:10
Partly Cloudy
Fog And Mist
46°F / 8°C 45°F / 7°C 93% 30.18 in
(1022 mb)
Calm - 2SM
03:54
Clear
Fog And Mist
45°F / 7°C 45°F / 7°C 100% 30.18 in
(1022 mb)
Calm - 5SM
03:49
Clear
Fog And Mist
46°F / 8°C 45°F / 7°C 93% 30.18 in
(1022 mb)
Calm - 3SM
03:47
Clear
Fog And Mist
46°F / 8°C 45°F / 7°C 93% 30.18 in
(1022 mb)
Calm - 1 1/2SM
03:40
Clear
Fog And Mist
46°F / 8°C 45°F / 7°C 93% 30.18 in
(1022 mb)
Calm - 3/4SM
03:36
Obscured
Fog And Mist
46°F / 8°C 45°F / 7°C 93% 30.18 in
(1022 mb)
Calm - 1SM
03:33
Partly Cloudy
Fog And Mist
46°F / 8°C 46°F / 8°C 100% 30.18 in
(1022 mb)
Calm - 1 3/4SM
03:24
Partly Cloudy
Fog And Mist
46°F / 8°C 45°F / 7°C 93% 30.18 in
(1022 mb)
Calm - 3SM
03:14
Partly Cloudy
Fog And Mist
46°F / 8°C 45°F / 7°C 93% 30.18 in
(1022 mb)
Calm - 1 3/4SM
03:11
Partly Cloudy
Fog And Mist
46°F / 8°C 45°F / 7°C 93% 30.18 in
(1022 mb)
Calm - 5SM
02:54
Clear
46°F / 8°C 45°F / 7°C 93% 30.18 in
(1022 mb)
Calm - 9SM
02:24
Partly Cloudy
Fog And Mist
48°F / 9°C 46°F / 8°C 94% 30.18 in
(1022 mb)
Calm - 3SM
02:13
Partly Cloudy
Fog And Mist
46°F / 8°C 46°F / 8°C 100% 30.18 in
(1022 mb)
Calm - 1 1/2SM
01:54
Clear
48°F / 9°C 46°F / 8°C 94% 30.18 in
(1022 mb)
Calm - 10SM
00:54
Clear
48°F / 9°C 46°F / 8°C 94% 30.18 in
(1022 mb)
Calm - 10SM
Time Weather Temperature Dewpoint Humidity Pressure Winds Precip Visibility


Weather for websites

WeatherForYou.com, LLC is not responsible for any damages or problems caused by this service. Current weather conditions are obtained from the closest station including government and personal stations which may have varying degrees of accuracy. Weather forecasts are derived from the NOAA NDFD. Like all things, this site belongs to Jesus Christ... He just trusts me to maintain it. If you have any questions or comments email webmaster@weatherforyou.com

Copyright © 2014, WeatherForYou.com LLC. All rights reserved.